When you browse on this site, cookies collect data to enhance your experience and personalize the content and advertising you see.
Visit our Privacy Policy to learn more. By continuing to use the site, you agree to this use of cookies and data.
  • In Portugal
  • List of Countries
  • For 7 days
  • Water Temperature
  • Satellite Maps
  • Weather Map
  • Weather Widgets
  • user-avatar
    Login

    Hourly Weather Bagart

    Today, 20 July, Saturday

    Time Temperature Precipitation Wind Pressure Humidity
    00:00 +16°C° 0.2 mm 1 mps 759 mmHg 91%
    01:00 +16°C° 0 mm 1 mps 759 mmHg 92%
    02:00 +16°C° 0.1 mm 1 mps 759 mmHg 92%
    03:00 +16°C° 0.1 mm 1 mps 759 mmHg 92%
    04:00 +16°C° 0.1 mm 1 mps 759 mmHg 92%
    05:00 +18°C° 0 mm 1 mps 759 mmHg 88%
    06:00 +18°C° 0 mm 0 mps 759 mmHg 85%
    07:00 +19°C° 0 mm 0 mps 760 mmHg 82%
    08:00 +21°C° 0 mm 0 mps 760 mmHg 75%
    09:00 +25°C° 0 mm 1 mps 760 mmHg 68%
    10:00 +26°C° 0 mm 1 mps 760 mmHg 61%
    11:00 +27°C° 0 mm 1 mps 760 mmHg 58%
    12:00 +27°C° 0 mm 1 mps 760 mmHg 54%
    13:00 +28°C° 0 mm 2 mps 760 mmHg 51%
    14:00 +28°C° 0 mm 2 mps 760 mmHg 53%
    15:00 +28°C° 0 mm 2 mps 760 mmHg 54%
    16:00 +27°C° 0 mm 2 mps 760 mmHg 56%
    17:00 +26°C° 0 mm 2 mps 760 mmHg 63%
    18:00 +25°C° 0 mm 2 mps 760 mmHg 70%
    19:00 +23°C° 0 mm 2 mps 759 mmHg 77%
    20:00 +21°C° 0 mm 2 mps 760 mmHg 78%
    21:00 +20°C° 0 mm 2 mps 760 mmHg 80%
    22:00 +19°C° 0 mm 2 mps 760 mmHg 82%
    23:00 +19°C° 0 mm 2 mps 760 mmHg 81%

    Tomorrow, 21 July, Sunday

    Time Temperature Precipitation Wind Pressure Humidity
    00:00 +19°C° 0 mm 3 mps 760 mmHg 81%
    01:00 +19°C° 0 mm 3 mps 760 mmHg 81%
    02:00 +19°C° 0 mm 3 mps 760 mmHg 81%
    03:00 +18°C° 0 mm 3 mps 760 mmHg 81%
    04:00 +18°C° 0 mm 3 mps 759 mmHg 81%
    05:00 +20°C° 0 mm 3 mps 759 mmHg 78%
    06:00 +21°C° 0 mm 4 mps 759 mmHg 74%
    07:00 +23°C° 0 mm 4 mps 759 mmHg 71%
    08:00 +25°C° 0 mm 5 mps 759 mmHg 70%
    09:00 +26°C° 0 mm 5 mps 759 mmHg 68%
    10:00 +26°C° 0 mm 5 mps 759 mmHg 66%
    11:00 +27°C° 1 mm 5 mps 759 mmHg 67%
    12:00 +27°C° 1 mm 4 mps 759 mmHg 68%
    13:00 +28°C° 1 mm 4 mps 759 mmHg 68%
    14:00 +27°C° 1 mm 4 mps 759 mmHg 70%
    15:00 +27°C° 1 mm 4 mps 759 mmHg 72%
    16:00 +26°C° 1 mm 5 mps 759 mmHg 74%
    17:00 +25°C° 0.4 mm 4 mps 759 mmHg 77%
    18:00 +22°C° 0.4 mm 3 mps 760 mmHg 80%
    19:00 +21°C° 0.4 mm 3 mps 760 mmHg 84%
    20:00 +20°C° 0 mm 2 mps 760 mmHg 85%
    21:00 +19°C° 0 mm 2 mps 761 mmHg 87%
    22:00 +18°C° 0 mm 2 mps 761 mmHg 88%
    23:00 +18°C° 0 mm 3 mps 761 mmHg 90%

    Day after tomorrow, 22 July, Monday

    Time Temperature Precipitation Wind Pressure Humidity
    00:00 +17°C° 0 mm 3 mps 761 mmHg 91%
    01:00 +16°C° 0 mm 3 mps 761 mmHg 92%
    02:00 +17°C° 0 mm 3 mps 762 mmHg 92%
    03:00 +17°C° 0 mm 4 mps 762 mmHg 91%
    04:00 +17°C° 0 mm 4 mps 762 mmHg 90%
    05:00 +18°C° 0.1 mm 4 mps 762 mmHg 87%
    06:00 +19°C° 0.1 mm 5 mps 762 mmHg 85%
    07:00 +19°C° 0.1 mm 6 mps 762 mmHg 82%
    08:00 +20°C° 0 mm 5 mps 763 mmHg 76%
    09:00 +21°C° 0 mm 5 mps 763 mmHg 71%
    10:00 +22°C° 0 mm 5 mps 763 mmHg 65%
    11:00 +22°C° 0 mm 5 mps 764 mmHg 62%
    12:00 +23°C° 0 mm 5 mps 764 mmHg 58%
    13:00 +23°C° 0 mm 6 mps 764 mmHg 55%
    14:00 +23°C° 0 mm 6 mps 764 mmHg 56%
    15:00 +23°C° 0 mm 6 mps 764 mmHg 57%
    16:00 +23°C° 0 mm 6 mps 764 mmHg 58%
    17:00 +21°C° 0 mm 5 mps 764 mmHg 64%
    18:00 +20°C° 0 mm 4 mps 764 mmHg 69%
    19:00 +19°C° 0 mm 3 mps 764 mmHg 74%
    20:00 +18°C° 0 mm 3 mps 764 mmHg 76%
    21:00 +17°C° 0 mm 3 mps 764 mmHg 78%
    22:00 +16°C° 0 mm 2 mps 764 mmHg 80%
    23:00 +16°C° 0 mm 2 mps 764 mmHg 83%

    23 July, Tuesday

    Time Temperature Precipitation Wind Pressure Humidity
    00:00 +15°C° 0 mm 2 mps 764 mmHg 85%
    01:00 +14°C° 0 mm 3 mps 764 mmHg 88%
    02:00 +15°C° 0 mm 2 mps 764 mmHg 87%
    03:00 +15°C° 0 mm 2 mps 764 mmHg 87%
    04:00 +16°C° 0 mm 2 mps 764 mmHg 86%
    05:00 +17°C° 0 mm 2 mps 764 mmHg 85%
    06:00 +18°C° 0 mm 2 mps 764 mmHg 83%
    07:00 +19°C° 0 mm 3 mps 764 mmHg 81%
    08:00 +19°C° 0 mm 3 mps 764 mmHg 82%
    09:00 +19°C° 0 mm 3 mps 764 mmHg 82%
    10:00 +19°C° 0 mm 3 mps 764 mmHg 82%
    11:00 +20°C° 0 mm 3 mps 764 mmHg 81%
    12:00 +21°C° 0 mm 3 mps 764 mmHg 79%
    13:00 +22°C° 0 mm 3 mps 763 mmHg 77%
    14:00 +22°C° 0 mm 3 mps 763 mmHg 78%
    15:00 +23°C° 0 mm 2 mps 763 mmHg 78%
    16:00 +23°C° 0 mm 2 mps 763 mmHg 78%
    17:00 +23°C° 0 mm 2 mps 763 mmHg 81%
    18:00 +22°C° 0 mm 1 mps 763 mmHg 84%
    19:00 +22°C° 0 mm 1 mps 763 mmHg 86%
    20:00 +21°C° 0 mm 1 mps 763 mmHg 89%
    21:00 +20°C° 0 mm 1 mps 763 mmHg 92%
    22:00 +16°C° 0 mm 0 mps 763 mmHg 94%
    23:00 +18°C° 0 mm 1 mps 763 mmHg 95%

    24 July, Wednesday

    Time Temperature Precipitation Wind Pressure Humidity
    00:00 +18°C° 0 mm 1 mps 763 mmHg 95%
    01:00 +18°C° 0 mm 1 mps 763 mmHg 95%
    02:00 +17°C° 0 mm 2 mps 763 mmHg 95%
    03:00 +17°C° 0 mm 2 mps 763 mmHg 95%
    04:00 +17°C° 0 mm 2 mps 763 mmHg 96%
    05:00 +19°C° 0 mm 2 mps 763 mmHg 92%
    06:00 +20°C° 0 mm 2 mps 763 mmHg 88%
    07:00 +23°C° 0 mm 2 mps 763 mmHg 84%
    08:00 +24°C° 0 mm 2 mps 763 mmHg 78%
    09:00 +26°C° 0 mm 2 mps 763 mmHg 72%
    10:00 +27°C° 0 mm 2 mps 763 mmHg 67%
    11:00 +28°C° 0 mm 2 mps 763 mmHg 65%
    12:00 +28°C° 0 mm 2 mps 763 mmHg 63%
    13:00 +29°C° 0 mm 2 mps 763 mmHg 61%
    14:00 +29°C° 0 mm 3 mps 763 mmHg 63%
    15:00 +28°C° 0 mm 3 mps 763 mmHg 65%
    16:00 +28°C° 0 mm 3 mps 763 mmHg 67%
    17:00 +26°C° 0 mm 3 mps 763 mmHg 73%
    18:00 +24°C° 0 mm 3 mps 763 mmHg 78%
    19:00 +23°C° 0 mm 2 mps 763 mmHg 84%
    20:00 +20°C° 0 mm 2 mps 763 mmHg 85%
    21:00 +20°C° 0 mm 1 mps 763 mmHg 86%
    22:00 +19°C° 0 mm 1 mps 764 mmHg 88%
    23:00 +16°C° 0 mm 0 mps 764 mmHg 88%

    25 July, Thursday

    Time Temperature Precipitation Wind Pressure Humidity
    00:00 +16°C° 0 mm 0 mps 764 mmHg 88%
    01:00 +15°C° 0 mm 0 mps 764 mmHg 88%
    02:00 +15°C° 0 mm 0 mps 764 mmHg 89%
    03:00 +15°C° 0 mm 0 mps 764 mmHg 89%
    04:00 +15°C° 0 mm 0 mps 764 mmHg 90%
    05:00 +17°C° 0 mm 0 mps 764 mmHg 84%
    06:00 +19°C° 0 mm 0 mps 764 mmHg 79%
    07:00 +20°C° 0 mm 0 mps 764 mmHg 73%
    08:00 +24°C° 0 mm 1 mps 765 mmHg 68%
    09:00 +26°C° 0 mm 1 mps 765 mmHg 62%
    10:00 +27°C° 0 mm 1 mps 765 mmHg 57%
    11:00 +28°C° 0 mm 2 mps 765 mmHg 55%
    12:00 +29°C° 0 mm 2 mps 764 mmHg 54%
    13:00 +29°C° 0 mm 3 mps 764 mmHg 52%
    14:00 +29°C° 0 mm 3 mps 764 mmHg 54%
    15:00 +29°C° 0 mm 3 mps 764 mmHg 56%
    16:00 +28°C° 0 mm 3 mps 764 mmHg 57%
    17:00 +26°C° 0 mm 3 mps 764 mmHg 65%
    18:00 +25°C° 0 mm 3 mps 764 mmHg 73%
    19:00 +23°C° 0 mm 2 mps 764 mmHg 81%
    20:00 +21°C° 0 mm 2 mps 764 mmHg 86%
    21:00 +20°C° 0 mm 2 mps 764 mmHg 90%
    22:00 +19°C° 0 mm 2 mps 764 mmHg 94%
    23:00 +19°C° 0 mm 2 mps 765 mmHg 95%
    Show more